Regional Weather Roundup
Issued by NWS

Home | Current Version | Previous Version | Graphics & Text | Print | Product List | Glossary On
Versions: 1 2 3 4 5 6 7 8 9 10 11 12 13 14 15 16 17 18 19 20 21 22 23 24 25 26 27 28 29 30 31 32 33 34 35 36 37 38 39 40 41 42 43 44 45 46 47 48 49 50
000
ASUS44 KMEG 211500
RWRTN
TENNESSEE HOURLY STATE WEATHER ROUNDUP
NATIONAL WEATHER SERVICE MEMPHIS TN
900 AM CST SUN DEC 21 2014

TNZ002-004-019-021-049-052-054-088>092-211600-
WEST TENNESSEE

CITY           SKY/WX    TMP DP  RH WIND       PRES   REMARKS
MEMPHIS INTL   MOSUNNY   41  31  67 E5        30.22R
NWS MEMPHIS      N/A     36 N/A N/A MISG        N/A
JACKSON        SUNNY     35  29  78 E3        30.22F
DYERSBURG      SUNNY     34  21  60 E5        30.24S WCI  30
UNION CITY     SUNNY     30  28  93 NE6       30.22S WCI  24
PARIS          SUNNY     34  27  75 E7        30.21F WCI  28
LEXINGTON      SUNNY     32  28  86 CALM      30.20F
SAVANNAH       SUNNY     34  30  86 CALM      30.21F
$$

TNZ008-025-027-028-033-062-065-066-211600-
NORTH MIDDLE TENNESSEE

CITY           SKY/WX    TMP DP  RH WIND       PRES   REMARKS
NASHVILLE      MOSUNNY   34  30  85 CALM      30.25S
CLARKSVILLE    SUNNY     31  27  85 E5        30.25S WCI  26
CROSSVILLE     SUNNY     37  27  67 NE3       30.22S
$$

TNZ061-075-076-078-094-096-097-211600-
SOUTH MIDDLE TENNESSEE

CITY           SKY/WX    TMP DP  RH WIND       PRES   REMARKS
TULLAHOMA      SUNNY     36  30  80 CALM      30.21S
WINCHESTER     SUNNY     37  34  87 CALM      30.21S
SHELBYVILLE    SUNNY     34  30  86 CALM      30.23S
$$

TNZ017-018-042-046-047-211600-
NORTHEAST TENNESSEE

CITY           SKY/WX    TMP DP  RH WIND       PRES   REMARKS
TRI CITIES     PTSUNNY   41  38  89 CALM      30.25R
ELIZABETHTON   CLOUDY    39  37  93 CALM      30.24R
$$

TNZ012-013-036-069-073-074-211600-
CENTRAL EAST TENNESSEE

CITY           SKY/WX    TMP DP  RH WIND       PRES   REMARKS
KNOXVILLE      CLOUDY    41  32  70 N6        30.25R
OAK RIDGE      CLOUDY    36  31  82 VRB3      30.27R
GATLINBURG     PTSUNNY   39  37  93 E3        30.25R
$$

TNZ083-085-099-211600-
SOUTHEAST TENNESSEE

CITY           SKY/WX    TMP DP  RH WIND       PRES   REMARKS
CHATTANOOGA    CLOUDY    40  33  76 NE7       30.25S
$$

SKY/WX REPORTED AS FAIR MEANS FEW OR NO CLOUDS BELOW
12 THOUSAND FEET.




USA.gov is the U.S. government's official web portal to all federal, state and local government web resources and services.